Weather History for LIMH - March, 2013

Change the Weather History Date:

Friday, March 29, 2013

  Actual Average Record
Temperature  
Mean Temperature 16 °F -  
Max Temperature 21 °F 22 °F 37 °F (1998)
Min Temperature 12 °F 11 °F -4 °F (1997)
Degree Days  
Heating Degree Days 48    
Moisture  
Dew Point 13 °F    
Average Humidity 86    
Maximum Humidity 100    
Minimum Humidity 64    
Precipitation  
Precipitation 0.00 in - - ()
Sea Level Pressure  
Sea Level Pressure 29.58 in    
Wind  
Wind Speed 15 mph ()    
Max Wind Speed 26 mph    
Max Gust Speed -    
Visibility 2.1 miles    
Events Fog , Snow    
Averages and records for this station are not official NWS values.
T = Trace of Precipitation, MM = Missing Value Source: Averaged Metar Reports

Daily Weather History Graph

Daily Weather History Graph

Search for Another Location

Airport or City:

Trip Planner

Search our weather history database for the weather conditions in past years. The results will help you decide how hot, cold, wet, or windy it might be!

Date:

Astronomy

Mar. 29, 2013 Rise Set
Actual Time 6:14 AM CET 6:53 PM CET
Civil Twilight 5:44 AM CET 7:23 PM CET
Nautical Twilight 5:09 AM CET 7:59 PM CET
Astronomical Twilight 4:32 AM CET 8:36 PM CET
Moon 9:46 PM CET (3/29) 7:03 AM CET (3/29)
Length of Visible Light 13h 38m
Length of Day
12h 38m
Waning Gibbous, 95% of the Moon is Illuminated
Mar 29
Waning Gibbous
Apr 3
Last Quarter
Apr 10
New
Apr 18
First Quarter
Apr 25
Full

Hourly Weather History & Observations

Time (CET) Temp. Windchill Dew Point Humidity Pressure Visibility Wind Dir Wind Speed Gust Speed Precip Events Conditions
12:55 AM 15.8 °F -1.1 °F 15.8 °F 100% 29.59 in 0.5 mi SSW 19.6 mph - N/A Fog , Snow Light Snow
1:00 AM 15 °F - 15 °F 100%  in 0 mi SSW 19.6 mph - - Snow Light Snow
1:55 AM 14.0 °F -3.4 °F 14.0 °F 100% 29.62 in 6.2 mi WSW 19.6 mph - N/A   Scattered Clouds
2:55 AM 14.0 °F -3.4 °F 10.4 °F 86% 29.59 in 6.2 mi SW 19.6 mph - N/A   Scattered Clouds
3:55 AM 14.0 °F -2.0 °F 10.4 °F 86% 29.59 in 6.2 mi SSW 16.1 mph - N/A   Scattered Clouds
4:00 AM 14 °F - 10 °F 77%  in 6 mi SSW 16.1 mph - -   Partly Cloudy
4:55 AM 12.2 °F -4.8 °F 8.6 °F 85% 29.56 in 6.2 mi SSW 17.3 mph - N/A   Scattered Clouds
5:55 AM 14.0 °F -1.4 °F 8.6 °F 79% 29.56 in 2.2 mi SSW 15.0 mph - N/A   Mist
6:55 AM 12.2 °F -2.5 °F 10.4 °F 92% 29.56 in 2.2 mi SSW 12.7 mph - N/A   Mist
7:00 AM 13 °F - 10 °F 82%  in 2 mi SSW 12.7 mph - -   Mist
7:55 AM 12.2 °F 1.7 °F 12.2 °F 100% 29.59 in 0.7 mi SSW 6.9 mph - N/A   Mist
8:55 AM 17.6 °F 6.4 °F 14.0 °F 86% 29.59 in 6.2 mi SSW 9.2 mph - N/A   Partly Cloudy
9:55 AM 21.2 °F 7.3 °F 14.0 °F 74% 29.59 in 6.2 mi SW 16.1 mph - N/A   Scattered Clouds
10:00 AM 21 °F - 14 °F 64%  in 4 mi SW 16.1 mph - -   Mist
10:55 AM 19.4 °F 1.4 °F 14.0 °F 80% 29.59 in 0.9 mi SSW 26.5 mph - N/A   Mist
12:55 PM 19.4 °F 3.6 °F 15.8 °F 86% 29.56 in 0.5 mi SSW 19.6 mph - N/A Fog Light Freezing Fog
1:00 PM 19 °F - 16 °F 81%  in 0 mi SSW 19.6 mph - - Fog Heavy Fog
1:55 PM 19.4 °F 3.6 °F 15.8 °F 86% 29.56 in 0.5 mi SSW 19.6 mph - N/A Fog Light Freezing Fog
2:55 PM 19.4 °F 4.5 °F 15.8 °F 86% 29.56 in 0.5 mi SSW 17.3 mph - N/A Fog Light Freezing Fog
3:55 PM 19.4 °F 3.2 °F 15.8 °F 86% 29.56 in 0.5 mi SSW 20.7 mph - N/A Fog Light Freezing Fog
4:00 PM 20 °F - 16 °F 78%  in 0 mi SSW 20.7 mph - - Fog Heavy Fog
4:55 PM 17.6 °F 1.3 °F 14.0 °F 86% 29.56 in 0.5 mi South 19.6 mph - N/A Fog Light Freezing Fog
5:55 PM 17.6 °F 3.7 °F 14.0 °F 86% 29.56 in 0.3 mi SSW 13.8 mph - N/A Fog Light Freezing Fog
6:55 PM 15.8 °F 0.9 °F 14.0 °F 93% 29.56 in 0.2 mi SSW 15.0 mph - N/A Fog , Snow Light Snow
7:00 PM 17 °F - 15 °F 85%  in 0 mi SSW 15.0 mph - - Snow Light Snow
7:55 PM 15.8 °F 2.1 °F 12.2 °F 86% 29.59 in 0.2 mi East 12.7 mph - N/A Fog , Snow Light Snow
8:55 PM 15.8 °F 5.1 °F 12.2 °F 86% 29.59 in 0.5 mi South 8.1 mph - N/A Fog , Snow Light Snow
9:55 PM 14.0 °F -2.0 °F 12.2 °F 93% 29.59 in 0.1 mi SSW 16.1 mph - N/A Fog , Snow Light Snow
10:00 PM 14 °F - 13 °F 91%  in 0 mi SSW 16.1 mph - - Snow Light Snow
10:55 PM 14.0 °F 3.9 °F 10.4 °F 86% 29.59 in 0.5 mi SSW 6.9 mph - N/A Fog Light Freezing Fog
11:55 PM 14.0 °F 1.2 °F 10.4 °F 86% 29.59 in 6.2 mi SW 10.4 mph - N/A   Partly Cloudy